Weather History for EDDM - October, 2013

Change the Weather History Date:

Thursday, October 24, 2013

  Actual Average Record
Temperature  
Mean Temperature 55 °F -  
Max Temperature 64 °F 46 °F 75 °F (2004)
Min Temperature 46 °F 34 °F 26 °F (2003)
Degree Days  
Heating Degree Days 10    
Growing Degree Days 5 (Base 50)    
Moisture  
Dew Point 51 °F    
Average Humidity 86    
Maximum Humidity 100    
Minimum Humidity 63    
Precipitation  
Precipitation 0.00 in 0.07 in - ()
Sea Level Pressure  
Sea Level Pressure 30.10 in    
Wind  
Wind Speed 3 mph ()    
Max Wind Speed 7 mph    
Max Gust Speed -    
Visibility 6.2 miles    
Events Fog , Rain    
Averages and records for this station are not official NWS values.
T = Trace of Precipitation, MM = Missing Value Source: Averaged Metar Reports

Daily Weather History Graph

Daily Weather History Graph

Search for Another Location

Airport or City:

Trip Planner

Search our weather history database for the weather conditions in past years. The results will help you decide how hot, cold, wet, or windy it might be!

Date:

Astronomy

Oct. 24, 2013 Rise Set
Actual Time 7:46 AM CEST 6:07 PM CEST
Civil Twilight 7:13 AM CEST 6:39 PM CEST
Nautical Twilight 6:37 AM CEST 7:15 PM CEST
Astronomical Twilight 6:01 AM CEST 7:51 PM CEST
Moon 10:05 PM CEST (10/24) 12:46 PM CEST (10/24)
Length of Visible Light 11h 25m
Length of Day
10h 20m
Waning Gibbous, 73% of the Moon is Illuminated
Oct 24
Waning Gibbous
Oct 27
Last Quarter
Nov 3
New
Nov 10
First Quarter
Nov 17
Full

Hourly Weather History & Observations

Time (CEST) Temp. Windchill Dew Point Humidity Pressure Visibility Wind Dir Wind Speed Gust Speed Precip Events Conditions
12:20 AM 55.4 °F - 53.6 °F 94% 30.04 in 6.2 mi South 2.3 mph - N/A   Mostly Cloudy
12:50 AM 53.6 °F - 51.8 °F 94% 30.06 in - South 5.8 mph - N/A   Clear
1:20 AM 55.4 °F - 51.8 °F 88% 30.04 in - South 5.8 mph - N/A   Clear
1:50 AM 55.4 °F - 51.8 °F 88% 30.04 in - South 3.5 mph - N/A   Clear
2:20 AM 53.6 °F - 51.8 °F 94% 30.06 in - West 2.3 mph - N/A   Clear
2:50 AM 51.8 °F - 50.0 °F 94% 30.06 in 6.2 mi Variable 2.3 mph - N/A Rain Light Rain
3:20 AM 51.8 °F - 50.0 °F 94% 30.06 in - Variable 1.2 mph - N/A   Clear
3:50 AM 51.8 °F - 50.0 °F 94% 30.06 in - SSW 1.2 mph - N/A   Clear
4:20 AM 50.0 °F - 48.2 °F 94% 30.06 in 6.2 mi WSW 1.2 mph - N/A Fog Shallow Fog
4:50 AM 50.0 °F - 50.0 °F 100% 30.09 in 6.2 mi South 3.5 mph - N/A Fog Shallow Fog
5:20 AM 50.0 °F - 50.0 °F 100% 30.09 in 6.2 mi SW 2.3 mph - N/A Fog Shallow Fog
5:50 AM 50.0 °F - 50.0 °F 100% 30.09 in 6.2 mi South 4.6 mph - N/A Fog Shallow Fog
6:20 AM 48.2 °F - 48.2 °F 100% 30.09 in 6.2 mi WSW 4.6 mph - N/A Fog Shallow Fog
6:50 AM 46.4 °F - 46.4 °F 100% 30.09 in 6.2 mi WSW 2.3 mph - N/A Fog Shallow Fog
7:20 AM 48.2 °F - 48.2 °F 100% 30.09 in 6.2 mi SSW 5.8 mph - N/A Fog Shallow Fog
7:50 AM 50.0 °F - 50.0 °F 100% 30.09 in 6.2 mi SW 4.6 mph - N/A Fog Shallow Fog
8:20 AM 50.0 °F - 50.0 °F 100% 30.12 in 6.2 mi Variable 2.3 mph - N/A Fog Shallow Fog
8:50 AM 50.0 °F - 50.0 °F 100% 30.12 in 6.2 mi WSW 3.5 mph - N/A Fog Shallow Fog
9:20 AM 51.8 °F - 51.8 °F 100% 30.15 in - South 2.3 mph - N/A   Clear
9:50 AM 55.4 °F - 53.6 °F 94% 30.15 in - South 4.6 mph - N/A   Clear
10:20 AM 57.2 °F - 51.8 °F 82% 30.15 in - Variable 1.2 mph - N/A   Clear
10:50 AM 57.2 °F - 51.8 °F 82% 30.15 in - WNW 3.5 mph - N/A   Clear
11:20 AM 59.0 °F - 51.8 °F 77% 30.15 in - Variable 3.5 mph - N/A   Clear
11:50 AM 60.8 °F - 51.8 °F 72% 30.15 in - Variable 3.5 mph - N/A   Clear
12:20 PM 62.6 °F - 51.8 °F 68% 30.15 in 6.2 mi Variable 2.3 mph - N/A   Scattered Clouds
12:50 PM 62.6 °F - 50.0 °F 63% 30.15 in 6.2 mi ENE 2.3 mph - N/A   Scattered Clouds
1:20 PM 62.6 °F - 51.8 °F 68% 30.15 in 6.2 mi Variable 3.5 mph - N/A   Scattered Clouds
1:50 PM 62.6 °F - 51.8 °F 68% 30.12 in 6.2 mi ESE 4.6 mph - N/A   Scattered Clouds
2:20 PM 64.4 °F - 51.8 °F 64% 30.12 in 6.2 mi ESE 5.8 mph - N/A   Scattered Clouds
2:50 PM 64.4 °F - 51.8 °F 64% 30.12 in 6.2 mi ESE 4.6 mph - N/A   Scattered Clouds
3:20 PM 64.4 °F - 51.8 °F 64% 30.12 in 6.2 mi ENE 4.6 mph - N/A   Scattered Clouds
3:50 PM 64.4 °F - 51.8 °F 64% 30.12 in 6.2 mi ENE 3.5 mph - N/A   Scattered Clouds
4:20 PM 64.4 °F - 51.8 °F 64% 30.12 in 6.2 mi East 4.6 mph - N/A   Scattered Clouds
4:50 PM 64.4 °F - 51.8 °F 64% 30.09 in 6.2 mi East 5.8 mph - N/A   Scattered Clouds
5:20 PM 62.6 °F - 51.8 °F 68% 30.09 in - East 6.9 mph - N/A   Clear
5:50 PM 62.6 °F - 53.6 °F 72% 30.09 in - East 5.8 mph - N/A   Clear
6:20 PM 60.8 °F - 53.6 °F 77% 30.09 in - East 5.8 mph - N/A   Clear
6:50 PM 59.0 °F - 53.6 °F 82% 30.09 in - East 4.6 mph - N/A   Clear
7:20 PM 55.4 °F - 51.8 °F 88% 30.12 in - ENE 4.6 mph - N/A   Clear
7:50 PM 51.8 °F - 50.0 °F 94% 30.12 in - East 3.5 mph - N/A   Clear
8:20 PM 50.0 °F - 48.2 °F 94% 30.12 in 6.2 mi East 5.8 mph - N/A Fog Shallow Fog
8:50 PM 51.8 °F - 50.0 °F 94% 30.12 in 6.2 mi ENE 5.8 mph - N/A Fog Shallow Fog
9:20 PM 50.0 °F - 48.2 °F 94% 30.12 in 6.2 mi East 3.5 mph - N/A Fog Shallow Fog
9:50 PM 48.2 °F - 46.4 °F 93% 30.12 in 6.2 mi ENE 4.6 mph - N/A Fog Shallow Fog
10:20 PM 51.8 °F - 51.8 °F 100% 30.12 in 6.2 mi East 6.9 mph - N/A Fog Shallow Fog
10:50 PM 48.2 °F - 48.2 °F 100% 30.12 in 6.2 mi East 5.8 mph - N/A Fog Shallow Fog
11:20 PM 46.4 °F 44.3 °F 46.4 °F 100% 30.09 in 6.2 mi East 4.6 mph - N/A Fog Patches of Fog
11:50 PM 46.4 °F 43.5 °F 46.4 °F 100% 30.09 in 6.2 mi East 5.8 mph - N/A Fog Patches of Fog